Oscoda, MI

11:36 AM EST on November 21, 2019 (GMT -0500)
Oscoda-Wurtsmith

Weather History for KOSC - October, 2019

Change the Weather History Date:

Monday, October 21, 2019

  Actual Average Record
Temperature  
Mean Temperature 50 °F -  
Max Temperature 57 °F 52 °F 78 °F (2007)
Min Temperature 43 °F 36 °F 26 °F (2002)
Degree Days  
Heating Degree Days 16    
Moisture  
Dew Point 50 °F    
Average Humidity 92    
Maximum Humidity 100    
Minimum Humidity 76    
Precipitation  
Precipitation 0.30 in - - ()
Sea Level Pressure  
Sea Level Pressure 29.83 in    
Wind  
Wind Speed 7 mph ()    
Max Wind Speed 21 mph    
Max Gust Speed 33 mph    
Visibility 6.4 miles    
Events Fog , Rain    
Averages and records for this station are not official NWS values.
T = Trace of Precipitation, MM = Missing Value Source: Averaged Metar Reports

Daily Weather History Graph

Daily Weather History Graph

Search for Another Location

Airport or City:

Astronomy

Oct. 21, 2019 Rise Set
Actual Time 7:56 AM EDT 6:39 PM EDT
Civil Twilight 7:26 AM EDT 7:09 PM EDT
Nautical Twilight 6:52 AM EDT 7:42 PM EDT
Astronomical Twilight 6:18 AM EDT 8:16 PM EDT
Moon No Moon Rise 3:21 PM EDT
Length of Visible Light 11h 42m
Length of Day
10h 43m
Waning Gibbous, 48% of the Moon is Illuminated
Oct 21
Waning Gibbous
Oct 27
New
Nov 4
First Quarter
Nov 12
Full
Nov 19
Last Quarter

Hourly Weather History & Observations

Time (EDT) Temp. Dew Point Humidity Pressure Visibility Wind Dir Wind Speed Gust Speed Precip Events Conditions
12:17 AM 44.2 °F 44.2 °F 100% 30.02 in 0.2 mi Calm Calm - N/A Fog Fog
12:35 AM 43.0 °F 43.0 °F 100% 30.02 in 0.2 mi Calm Calm - N/A Fog Fog
12:55 AM 43.7 °F 43.7 °F 100% 30.02 in 0.5 mi Calm Calm - N/A Fog Fog
12:56 AM 43.9 °F 43.9 °F 100% 30.02 in 0.5 mi Calm Calm - N/A Fog Fog
1:15 AM 45.5 °F 45.5 °F 100% 30.02 in 5.0 mi Calm Calm - N/A   Overcast
1:19 AM 45.7 °F 45.7 °F 100% 30.02 in 5.0 mi Calm Calm - N/A   Overcast
1:38 AM 46.9 °F 46.9 °F 100% 30.02 in 7.0 mi Calm Calm - N/A   Overcast
1:56 AM 48.2 °F 48.2 °F 100% 30.02 in 7.0 mi Calm Calm - N/A   Overcast
2:15 AM 49.1 °F 49.1 °F 100% 30.02 in 4.0 mi Calm Calm - N/A   Overcast
2:35 AM 49.1 °F 49.1 °F 100% 30.01 in 3.0 mi Calm Calm - N/A   Overcast
2:36 AM 49.1 °F 49.1 °F 100% 30.01 in 2.5 mi Calm Calm - N/A   Overcast
2:59 AM 50.5 °F 50.5 °F 100% 30.02 in 0.2 mi NE 4.6 mph - N/A Fog Fog
3:17 AM 50.5 °F 50.5 °F 100% 30.03 in 0.5 mi NNE 4.6 mph - N/A Fog Fog
3:35 AM 50.5 °F 50.5 °F 100% 30.02 in 0.5 mi NE 3.5 mph - N/A Fog Fog
3:55 AM 50.4 °F 50.4 °F 100% 30.02 in 1.2 mi NNE 3.5 mph - N/A   Overcast
3:56 AM 50.2 °F 50.2 °F 100% 30.02 in 1.2 mi NE 3.5 mph - N/A   Overcast
4:15 AM 51.3 °F 51.3 °F 100% 30.01 in 5.0 mi ENE 8.1 mph - N/A   Overcast
4:20 AM 51.3 °F 51.3 °F 100% 30.01 in 5.0 mi ENE 5.8 mph - N/A   Overcast
4:38 AM 51.3 °F 51.3 °F 100% 29.99 in 3.0 mi ENE 6.9 mph - N/A   Overcast
4:56 AM 51.3 °F 51.3 °F 100% 29.99 in 1.2 mi East 6.9 mph - N/A   Overcast
5:15 AM 51.1 °F 51.1 °F 100% 30.01 in 0.2 mi East 5.8 mph - N/A Fog Fog
5:35 AM 50.9 °F 50.9 °F 100% 30.03 in 0.2 mi East 5.8 mph - N/A   Overcast
5:59 AM 50.9 °F 50.9 °F 100% 30.01 in 0.2 mi ENE 6.9 mph - N/A   Unknown
6:17 AM 50.5 °F 50.5 °F 100% 30.01 in 0.2 mi NE 6.9 mph - N/A   Unknown
6:35 AM 50.9 °F 50.9 °F 100% 30.00 in 1.2 mi ENE 5.8 mph - N/A   Overcast
6:36 AM 50.9 °F 50.9 °F 100% 30.00 in 1.5 mi ENE 5.8 mph - N/A   Overcast
6:55 AM 51.1 °F 51.1 °F 100% 30.00 in 4.0 mi ENE 5.8 mph - N/A   Overcast
7:15 AM 51.3 °F 51.3 °F 100% 30.00 in 5.0 mi East 9.2 mph - N/A   Overcast
7:38 AM 50.5 °F 50.5 °F 100% 29.99 in 3.0 mi East 8.1 mph - N/A   Overcast
7:56 AM 50.9 °F 50.9 °F 100% 29.99 in 3.0 mi East 8.1 mph - N/A   Overcast
8:15 AM 50.9 °F 50.9 °F 100% 29.99 in 2.0 mi East 10.4 mph - N/A   Overcast
8:35 AM 51.1 °F 51.1 °F 100% 29.98 in 2.5 mi East 9.2 mph 16.1 mph N/A   Overcast
8:59 AM 51.1 °F 51.1 °F 100% 29.95 in 2.0 mi East 12.7 mph - N/A   Overcast
9:17 AM 51.1 °F 51.1 °F 100% 29.95 in 2.0 mi East 10.4 mph - N/A   Overcast
9:36 AM 51.3 °F 51.3 °F 100% 29.95 in 4.0 mi East 8.1 mph - N/A   Overcast
9:55 AM 51.8 °F 51.8 °F 100% 29.94 in 4.0 mi East 8.1 mph - N/A   Overcast
10:15 AM 52.2 °F 52.2 °F 100% 29.93 in 7.0 mi East 6.9 mph - N/A   Mostly Cloudy
10:20 AM 52.2 °F 52.2 °F 100% 29.93 in 7.0 mi East 8.1 mph - N/A   Mostly Cloudy
10:38 AM 52.7 °F 51.6 °F 96% 29.93 in 10.0 mi East 6.9 mph - N/A   Scattered Clouds
10:56 AM 52.9 °F 51.1 °F 94% 29.93 in 10.0 mi East 5.8 mph - N/A   Mostly Cloudy
11:15 AM 53.4 °F 51.3 °F 92% 29.92 in 10.0 mi East 5.8 mph - N/A   Overcast
11:35 AM 54.1 °F 51.1 °F 89% 29.89 in 10.0 mi East 10.4 mph - N/A   Mostly Cloudy
11:36 AM 54.1 °F 51.1 °F 89% 29.89 in 10.0 mi East 9.2 mph - N/A   Mostly Cloudy
11:59 AM 54.5 °F 50.5 °F 86% 29.88 in 10.0 mi ESE 11.5 mph 16.1 mph N/A   Mostly Cloudy
12:17 PM 54.5 °F 50.2 °F 85% 29.87 in 10.0 mi ESE 10.4 mph 17.3 mph N/A   Overcast
12:35 PM 54.5 °F 49.6 °F 84% 29.87 in 10.0 mi ESE 10.4 mph 18.4 mph N/A   Overcast
12:55 PM 55.0 °F 49.8 °F 83% 29.86 in 10.0 mi ESE 13.8 mph 19.6 mph N/A   Overcast
12:56 PM 55.0 °F 49.6 °F 82% 29.86 in 10.0 mi ESE 15.0 mph 20.7 mph N/A   Overcast
1:15 PM 55.8 °F 49.3 °F 79% 29.85 in 10.0 mi ESE 11.5 mph 21.9 mph N/A   Overcast
1:20 PM 55.9 °F 49.5 °F 79% 29.85 in 10.0 mi ESE 12.7 mph - N/A   Overcast
1:38 PM 55.8 °F 49.3 °F 79% 29.83 in 10.0 mi ESE 13.8 mph 25.3 mph N/A   Mostly Cloudy
1:56 PM 56.3 °F 49.5 °F 78% 29.81 in 10.0 mi ESE 13.8 mph 25.3 mph N/A   Mostly Cloudy
2:15 PM 56.3 °F 49.1 °F 77% 29.79 in 10.0 mi ESE 15.0 mph 27.6 mph N/A   Overcast
2:35 PM 56.3 °F 48.7 °F 76% 29.78 in 10.0 mi SE 15.0 mph 20.7 mph N/A   Overcast
2:59 PM 55.9 °F 49.1 °F 78% 29.78 in 10.0 mi ESE 16.1 mph 23.0 mph N/A   Overcast
3:17 PM 55.9 °F 49.3 °F 78% 29.77 in 10.0 mi SE 13.8 mph 24.2 mph N/A Rain Light Rain
3:35 PM 55.0 °F 50.2 °F 84% 29.78 in 7.0 mi SE 11.5 mph 21.9 mph 0.01 in Rain Light Rain
3:55 PM 54.9 °F 50.7 °F 86% 29.77 in 7.0 mi SE 15.0 mph 24.2 mph 0.02 in Rain Light Rain
4:15 PM 54.9 °F 50.5 °F 85% 29.74 in 7.0 mi ESE 16.1 mph 23.0 mph 0.01 in Rain Light Rain
4:20 PM 54.7 °F 50.5 °F 86% 29.73 in 7.0 mi ESE 17.3 mph 21.9 mph 0.01 in Rain Light Rain
4:38 PM 54.7 °F 50.2 °F 85% 29.70 in 10.0 mi ESE 20.7 mph 28.8 mph 0.01 in Rain Light Rain
4:56 PM 55.2 °F 50.2 °F 83% 29.69 in 7.0 mi ESE 19.6 mph 26.5 mph 0.02 in Rain Light Rain
5:15 PM 55.4 °F 50.2 °F 83% 29.69 in 7.0 mi ESE 12.7 mph 26.5 mph 0.01 in Rain Light Rain
5:35 PM 54.9 °F 50.5 °F 85% 29.68 in 7.0 mi ESE 17.3 mph 33.4 mph 0.04 in Rain Light Rain
5:36 PM 54.7 °F 50.5 °F 86% 29.68 in 7.0 mi ESE 18.4 mph 33.4 mph 0.04 in Rain Light Rain
5:59 PM 55.0 °F 50.7 °F 85% 29.66 in 10.0 mi ESE 19.6 mph 28.8 mph 0.04 in Rain Light Rain
6:17 PM 55.2 °F 50.9 °F 85% 29.67 in 10.0 mi ESE 20.7 mph 28.8 mph 0.01 in Rain Rain
6:35 PM 55.6 °F 50.9 °F 84% 29.66 in 10.0 mi ESE 19.6 mph 31.1 mph 0.01 in   Overcast
6:55 PM 54.7 °F 50.9 °F 87% 29.66 in 10.0 mi ESE 15.0 mph 23.0 mph 0.02 in Rain Light Rain
6:56 PM 54.5 °F 51.1 °F 88% 29.66 in 10.0 mi ESE 15.0 mph 23.0 mph 0.02 in Rain Light Rain
7:15 PM 54.5 °F 50.9 °F 88% 29.65 in 10.0 mi SE 17.3 mph 26.5 mph N/A Rain Light Rain
7:20 PM 54.7 °F 50.9 °F 87% 29.65 in 10.0 mi SE 15.0 mph 27.6 mph N/A Rain Rain
7:38 PM 54.5 °F 50.9 °F 88% 29.64 in 10.0 mi SE 19.6 mph 26.5 mph 0.01 in Rain Light Rain
7:56 PM 54.5 °F 50.9 °F 88% 29.63 in 10.0 mi SE 17.3 mph 26.5 mph 0.01 in   Drizzle
8:15 PM 54.3 °F 50.9 °F 88% 29.62 in 10.0 mi SE 16.1 mph 25.3 mph N/A Rain Light Rain
8:35 PM 54.3 °F 51.3 °F 89% 29.61 in 5.0 mi SE 18.4 mph 28.8 mph 0.03 in Rain Rain
8:36 PM 54.3 °F 51.3 °F 89% 29.61 in 5.0 mi SE 17.3 mph 28.8 mph 0.03 in Rain Light Rain
8:59 PM 54.3 °F 51.8 °F 91% 29.60 in 7.0 mi SSE 16.1 mph 25.3 mph 0.05 in Rain Light Rain
9:17 PM 54.5 °F 52.0 °F 91% 29.61 in 7.0 mi SSE 16.1 mph 25.3 mph 0.04 in Rain Light Rain
9:35 PM 54.5 °F 51.8 °F 91% 29.60 in 7.0 mi SSE 19.6 mph 28.8 mph 0.06 in Rain Light Rain
9:36 PM 54.5 °F 51.8 °F 91% 29.60 in 7.0 mi SSE 19.6 mph 28.8 mph 0.06 in Rain Light Rain
9:55 PM 54.5 °F 52.2 °F 92% 29.59 in 7.0 mi SE 12.7 mph 24.2 mph 0.10 in Rain Rain
9:56 PM 54.5 °F 52.0 °F 91% 29.59 in 7.0 mi SSE 15.0 mph 24.2 mph 0.10 in Rain Rain
10:15 PM 54.5 °F 51.8 °F 91% 29.58 in 10.0 mi SE 13.8 mph 20.7 mph 0.01 in Rain Light Rain
10:20 PM 54.5 °F 51.4 °F 89% 29.58 in 10.0 mi SE 13.8 mph 19.6 mph 0.01 in Rain Light Rain
10:38 PM 55.0 °F 51.8 °F 89% 29.57 in 10.0 mi SSE 15.0 mph 20.7 mph 0.02 in Rain Light Rain
10:56 PM 55.0 °F 52.2 °F 90% 29.59 in 10.0 mi SSE 16.1 mph 24.2 mph 0.04 in Rain Light Rain
11:15 PM 55.8 °F 53.2 °F 91% 29.57 in 10.0 mi SSE 13.8 mph 18.4 mph N/A Rain Light Rain
11:16 PM 55.8 °F 53.2 °F 91% 29.57 in 10.0 mi SSE 12.7 mph 18.4 mph N/A Rain Light Rain
11:35 PM 56.7 °F 54.1 °F 91% 29.57 in 10.0 mi South 11.5 mph - N/A Rain Light Rain
11:59 PM 57.2 °F 54.7 °F 91% 29.56 in 10.0 mi South 6.9 mph - N/A   Overcast